date,time,SUV Intensity [MED/Hr],UV Index,Daily total [MED],Since Last [MED]
07/08/2023,23:59:51,-0.000,0.0,9.6,9.6
08/08/2023,00:00:51,0.000,0.0,0.0,-9.6
08/08/2023,00:01:51,0.000,0.0,0.0,0.0
08/08/2023,00:02:52,0.000,0.0,0.0,0.0
08/08/2023,00:03:52,0.001,0.0,0.0,0.0
08/08/2023,00:04:51,0.000,0.0,0.0,0.0
08/08/2023,00:05:52,0.000,0.0,0.0,0.0
08/08/2023,00:06:51,0.001,0.0,0.0,0.0
08/08/2023,00:07:51,0.000,0.0,0.0,0.0
08/08/2023,00:08:51,-0.001,0.0,0.0,0.0
08/08/2023,00:09:51,-0.000,0.0,0.0,0.0
08/08/2023,00:10:49,0.001,0.0,0.0,0.0
08/08/2023,00:11:50,0.000,0.0,0.0,0.0
08/08/2023,00:12:51,0.000,0.0,0.0,0.0
08/08/2023,00:13:52,0.001,0.0,0.0,0.0
08/08/2023,00:14:52,0.000,0.0,0.0,0.0
08/08/2023,00:15:52,0.000,0.0,0.0,0.0
08/08/2023,00:16:51,0.000,0.0,0.0,0.0
08/08/2023,00:17:51,0.000,0.0,0.0,0.0
08/08/2023,00:18:51,0.001,0.0,0.0,0.0
08/08/2023,00:19:52,0.000,0.0,0.0,0.0
08/08/2023,00:20:52,0.000,0.0,0.0,0.0
08/08/2023,00:21:50,0.000,0.0,0.0,0.0
08/08/2023,00:22:49,0.000,0.0,0.0,0.0
08/08/2023,00:23:52,0.000,0.0,0.0,0.0
08/08/2023,00:24:52,0.000,0.0,0.0,0.0
08/08/2023,00:25:52,0.000,0.0,0.0,0.0
08/08/2023,00:26:51,0.001,0.0,0.0,0.0
08/08/2023,00:27:52,0.000,0.0,0.0,0.0
08/08/2023,00:28:51,-0.000,0.0,0.0,0.0
08/08/2023,00:29:52,0.000,0.0,0.0,0.0
08/08/2023,00:30:52,0.000,0.0,0.0,0.0
08/08/2023,00:31:51,0.000,0.0,0.0,0.0
08/08/2023,00:32:52,0.000,0.0,0.0,0.0
08/08/2023,00:33:51,0.000,0.0,0.0,0.0
08/08/2023,00:34:51,0.001,0.0,0.0,0.0
08/08/2023,00:35:52,0.000,0.0,0.0,0.0
08/08/2023,00:36:51,-0.001,0.0,0.0,0.0
08/08/2023,00:37:51,-0.000,0.0,0.0,0.0
08/08/2023,00:38:52,0.000,0.0,0.0,0.0
08/08/2023,00:39:52,-0.001,0.0,0.0,0.0
08/08/2023,00:40:52,-0.000,0.0,0.0,0.0
08/08/2023,00:41:51,0.000,0.0,0.0,0.0
08/08/2023,00:42:51,0.001,0.0,0.0,0.0
08/08/2023,00:43:52,0.001,0.0,0.0,0.0
08/08/2023,00:44:52,-0.000,0.0,0.0,0.0
08/08/2023,00:45:52,0.000,0.0,0.0,0.0
08/08/2023,00:46:51,-0.001,0.0,0.0,0.0
08/08/2023,00:47:51,0.001,0.0,0.0,0.0
08/08/2023,00:48:51,0.000,0.0,0.0,0.0
08/08/2023,00:49:52,0.000,0.0,0.0,0.0
08/08/2023,00:50:52,0.000,0.0,0.0,0.0
08/08/2023,00:51:51,0.000,0.0,0.0,0.0
08/08/2023,00:52:51,0.001,0.0,0.0,0.0
08/08/2023,00:53:52,0.000,0.0,0.0,0.0
08/08/2023,00:54:51,0.001,0.0,0.0,0.0
08/08/2023,00:55:51,0.000,0.0,0.0,0.0
08/08/2023,00:56:52,0.000,0.0,0.0,0.0
08/08/2023,00:57:51,0.001,0.0,0.0,0.0
08/08/2023,00:58:51,0.000,0.0,0.0,0.0
08/08/2023,00:59:52,0.000,0.0,0.0,0.0
08/08/2023,01:00:52,0.000,0.0,0.0,0.0
08/08/2023,01:01:52,-0.001,0.0,0.0,0.0
08/08/2023,01:02:51,0.000,0.0,0.0,0.0
08/08/2023,01:03:51,0.000,0.0,0.0,0.0
08/08/2023,01:04:51,0.000,0.0,0.0,0.0
08/08/2023,01:05:52,0.000,0.0,0.0,0.0
08/08/2023,01:06:51,0.000,0.0,0.0,0.0
08/08/2023,01:07:51,-0.001,0.0,0.0,0.0
08/08/2023,01:08:52,0.000,0.0,0.0,0.0
08/08/2023,01:09:52,0.000,0.0,0.0,0.0
08/08/2023,01:10:52,0.000,0.0,0.0,0.0
08/08/2023,01:11:52,0.001,0.0,0.0,0.0
08/08/2023,01:12:52,0.000,0.0,0.0,0.0
08/08/2023,01:13:51,0.000,0.0,0.0,0.0
08/08/2023,01:14:52,-0.001,0.0,0.0,0.0
08/08/2023,01:15:52,0.000,0.0,0.0,0.0
08/08/2023,01:16:51,0.001,0.0,0.0,0.0
08/08/2023,01:17:52,0.000,0.0,0.0,0.0
08/08/2023,01:18:52,-0.000,0.0,0.0,0.0
08/08/2023,01:19:52,0.001,0.0,0.0,0.0
08/08/2023,01:20:52,0.000,0.0,0.0,0.0
08/08/2023,01:21:51,0.000,0.0,0.0,0.0
08/08/2023,01:22:52,0.000,0.0,0.0,0.0
08/08/2023,01:23:52,0.000,0.0,0.0,0.0
08/08/2023,01:24:52,0.000,0.0,0.0,0.0
08/08/2023,01:25:51,-0.000,0.0,0.0,0.0
08/08/2023,01:26:51,0.001,0.0,0.0,0.0
08/08/2023,01:27:52,-0.001,0.0,0.0,0.0
08/08/2023,01:28:52,-0.001,0.0,0.0,0.0
08/08/2023,01:29:52,0.001,0.0,0.0,0.0
08/08/2023,01:30:51,0.000,0.0,0.0,0.0
08/08/2023,01:31:51,0.000,0.0,0.0,0.0
08/08/2023,01:32:52,0.000,0.0,0.0,0.0
08/08/2023,01:33:52,0.000,0.0,0.0,0.0
08/08/2023,01:34:51,0.000,0.0,0.0,0.0
08/08/2023,01:35:52,0.000,0.0,0.0,0.0
08/08/2023,01:36:52,0.002,0.0,0.0,0.0
08/08/2023,01:37:52,-0.001,0.0,0.0,0.0
08/08/2023,01:38:51,-0.000,0.0,0.0,0.0
08/08/2023,01:39:52,0.000,0.0,0.0,0.0
08/08/2023,01:40:51,0.000,0.0,0.0,0.0
08/08/2023,01:41:52,-0.001,0.0,0.0,0.0
08/08/2023,01:42:52,0.000,0.0,0.0,0.0
08/08/2023,01:43:52,-0.000,0.0,0.0,0.0
08/08/2023,01:44:51,0.001,0.0,0.0,0.0
08/08/2023,01:45:52,0.000,0.0,0.0,0.0
08/08/2023,01:46:51,0.001,0.0,0.0,0.0
08/08/2023,01:47:52,-0.000,0.0,0.0,0.0
08/08/2023,01:48:52,0.000,0.0,0.0,0.0
08/08/2023,01:49:52,0.000,0.0,0.0,0.0
08/08/2023,01:50:51,-0.000,0.0,0.0,0.0
08/08/2023,01:51:51,0.002,0.0,0.0,0.0
08/08/2023,01:52:52,0.001,0.0,0.0,0.0
08/08/2023,01:53:52,0.001,0.0,0.0,0.0
08/08/2023,01:54:52,-0.000,0.0,0.0,0.0
08/08/2023,01:55:51,0.000,0.0,0.0,0.0
08/08/2023,01:56:51,0.001,0.0,0.0,0.0
08/08/2023,01:57:52,0.000,0.0,0.0,0.0
08/08/2023,01:58:52,0.000,0.0,0.0,0.0
08/08/2023,01:59:52,0.001,0.0,0.0,0.0
08/08/2023,02:00:51,0.001,0.0,0.0,0.0
08/08/2023,02:01:52,-0.000,0.0,0.0,0.0
08/08/2023,02:02:52,0.001,0.0,0.0,0.0
08/08/2023,02:03:52,0.001,0.0,0.0,0.0
08/08/2023,02:04:52,0.001,0.0,0.0,0.0
08/08/2023,02:05:52,0.001,0.0,0.0,0.0
08/08/2023,02:06:51,0.001,0.0,0.0,0.0
08/08/2023,02:07:51,0.002,0.0,0.0,0.0
08/08/2023,02:08:52,0.001,0.0,0.0,0.0
08/08/2023,02:09:52,0.001,0.0,0.0,0.0
08/08/2023,02:10:50,0.000,0.0,0.0,0.0
08/08/2023,02:11:50,0.001,0.0,0.0,0.0
08/08/2023,02:12:52,0.002,0.0,0.0,0.0
08/08/2023,02:13:51,0.001,0.0,0.0,0.0
08/08/2023,02:14:52,-0.000,0.0,0.0,0.0
08/08/2023,02:15:51,0.001,0.0,0.0,0.0
08/08/2023,02:16:50,0.000,0.0,0.0,0.0
08/08/2023,02:17:50,0.001,0.0,0.0,0.0
08/08/2023,02:18:52,0.001,0.0,0.0,0.0
08/08/2023,02:19:51,0.001,0.0,0.0,0.0
08/08/2023,02:20:51,0.001,0.0,0.0,0.0
08/08/2023,02:21:52,0.001,0.0,0.0,0.0
08/08/2023,02:22:51,0.002,0.0,0.0,0.0
08/08/2023,02:23:52,0.001,0.0,0.0,0.0
08/08/2023,02:24:51,0.000,0.0,0.0,0.0
08/08/2023,02:25:52,-0.000,0.0,0.0,0.0
08/08/2023,02:26:51,0.002,0.0,0.0,0.0
08/08/2023,02:27:52,0.001,0.0,0.0,0.0
08/08/2023,02:28:51,0.001,0.0,0.0,0.0
08/08/2023,02:29:52,0.002,0.0,0.0,0.0
08/08/2023,02:30:51,0.001,0.0,0.0,0.0
08/08/2023,02:31:52,0.001,0.0,0.0,0.0
08/08/2023,02:32:52,-0.000,0.0,0.0,0.0
08/08/2023,02:33:49,0.002,0.0,0.0,0.0
08/08/2023,02:34:50,0.001,0.0,0.0,0.0
08/08/2023,02:35:51,0.001,0.0,0.0,0.0
08/08/2023,02:36:52,0.000,0.0,0.0,0.0
08/08/2023,02:37:52,0.002,0.0,0.0,0.0
08/08/2023,02:38:52,0.000,0.0,0.0,0.0
08/08/2023,02:39:52,0.002,0.0,0.0,0.0
08/08/2023,02:40:52,0.000,0.0,0.0,0.0
08/08/2023,02:41:51,0.001,0.0,0.0,0.0
08/08/2023,02:42:51,0.001,0.0,0.0,0.0
08/08/2023,02:43:52,0.001,0.0,0.0,0.0
08/08/2023,02:44:51,0.000,0.0,0.0,0.0
08/08/2023,02:45:51,0.001,0.0,0.0,0.0
08/08/2023,02:46:51,0.001,0.0,0.0,0.0
08/08/2023,02:47:52,0.000,0.0,0.0,0.0
08/08/2023,02:48:50,0.000,0.0,0.0,0.0
08/08/2023,02:49:52,0.001,0.0,0.0,0.0
08/08/2023,02:50:52,0.001,0.0,0.0,0.0
08/08/2023,02:51:52,-0.000,0.0,0.0,0.0
08/08/2023,02:52:51,0.001,0.0,0.0,0.0
08/08/2023,02:53:52,0.001,0.0,0.0,0.0
08/08/2023,02:54:51,0.000,0.0,0.0,0.0
08/08/2023,02:55:51,-0.000,0.0,0.0,0.0
08/08/2023,02:56:52,0.001,0.0,0.0,0.0
08/08/2023,02:57:52,0.001,0.0,0.0,0.0
08/08/2023,02:58:52,0.001,0.0,0.0,0.0
08/08/2023,02:59:51,0.001,0.0,0.0,0.0
08/08/2023,03:00:51,-0.000,0.0,0.0,0.0
08/08/2023,03:01:52,0.000,0.0,0.0,0.0
08/08/2023,03:02:51,0.001,0.0,0.0,0.0
08/08/2023,03:03:51,0.001,0.0,0.0,0.0
08/08/2023,03:04:52,0.001,0.0,0.0,0.0
08/08/2023,03:05:52,0.000,0.0,0.0,0.0
08/08/2023,03:06:52,0.001,0.0,0.0,0.0
08/08/2023,03:07:52,0.001,0.0,0.0,0.0
08/08/2023,03:08:51,0.001,0.0,0.0,0.0
08/08/2023,03:09:52,0.000,0.0,0.0,0.0
08/08/2023,03:10:52,0.000,0.0,0.0,0.0
08/08/2023,03:11:52,0.001,0.0,0.0,0.0
08/08/2023,03:12:52,0.001,0.0,0.0,0.0
08/08/2023,03:13:52,0.001,0.0,0.0,0.0
08/08/2023,03:14:52,0.001,0.0,0.0,0.0
08/08/2023,03:15:52,0.001,0.0,0.0,0.0
08/08/2023,03:16:52,0.000,0.0,0.0,0.0
08/08/2023,03:17:52,0.001,0.0,0.0,0.0
08/08/2023,03:18:52,0.001,0.0,0.0,0.0
08/08/2023,03:19:52,0.001,0.0,0.0,0.0
08/08/2023,03:20:52,0.001,0.0,0.0,0.0
08/08/2023,03:21:52,0.000,0.0,0.0,0.0
08/08/2023,03:22:51,0.001,0.0,0.0,0.0
08/08/2023,03:23:52,0.001,0.0,0.0,0.0
08/08/2023,03:24:52,0.000,0.0,0.0,0.0
08/08/2023,03:25:52,0.001,0.0,0.0,0.0
08/08/2023,03:26:52,0.000,0.0,0.0,0.0
08/08/2023,03:27:51,0.001,0.0,0.0,0.0
08/08/2023,03:28:52,0.001,0.0,0.0,0.0
08/08/2023,03:29:52,0.001,0.0,0.0,0.0
08/08/2023,03:30:52,0.001,0.0,0.0,0.0
08/08/2023,03:31:52,0.001,0.0,0.0,0.0
08/08/2023,03:32:50,0.001,0.0,0.0,0.0
08/08/2023,03:33:50,0.001,0.0,0.0,0.0
08/08/2023,03:34:51,0.001,0.0,0.0,0.0
08/08/2023,03:35:52,0.000,0.0,0.0,0.0
08/08/2023,03:36:51,0.000,0.0,0.0,0.0
08/08/2023,03:37:51,-0.000,0.0,0.0,0.0
08/08/2023,03:38:52,0.001,0.0,0.0,0.0
08/08/2023,03:39:52,0.001,0.0,0.0,0.0
08/08/2023,03:40:52,0.001,0.0,0.0,0.0
08/08/2023,03:41:51,0.001,0.0,0.0,0.0
08/08/2023,03:42:52,0.001,0.0,0.0,0.0
08/08/2023,03:43:52,-0.000,0.0,0.0,0.0
08/08/2023,03:44:52,0.001,0.0,0.0,0.0
08/08/2023,03:45:52,-0.000,0.0,0.0,0.0
08/08/2023,03:46:52,0.001,0.0,0.0,0.0
08/08/2023,03:47:52,0.001,0.0,0.0,0.0
08/08/2023,03:48:52,0.001,0.0,0.0,0.0
08/08/2023,03:49:52,0.000,0.0,0.0,0.0
08/08/2023,03:50:52,0.001,0.0,0.0,0.0
08/08/2023,03:51:51,0.002,0.0,0.0,0.0
08/08/2023,03:52:52,0.000,0.0,0.0,0.0
08/08/2023,03:53:52,0.001,0.0,0.0,0.0
08/08/2023,03:54:52,0.001,0.0,0.0,0.0
08/08/2023,03:55:51,0.001,0.0,0.0,0.0
08/08/2023,03:56:52,0.001,0.0,0.0,0.0
08/08/2023,03:57:52,0.001,0.0,0.0,0.0
08/08/2023,03:58:52,0.001,0.0,0.0,0.0
08/08/2023,03:59:52,0.001,0.0,0.0,0.0
08/08/2023,04:00:52,0.000,0.0,0.0,0.0
08/08/2023,04:01:52,0.001,0.0,0.0,0.0
08/08/2023,04:02:51,0.001,0.0,0.0,0.0
08/08/2023,04:03:52,0.001,0.0,0.0,0.0
08/08/2023,04:04:52,0.001,0.0,0.0,0.0
08/08/2023,04:05:52,0.001,0.0,0.0,0.0
08/08/2023,04:07:21,-0.000,0.0,0.0,0.0
08/08/2023,04:08:52,0.000,0.0,0.0,0.0
08/08/2023,04:09:51,-0.000,0.0,0.0,0.0
08/08/2023,04:10:52,0.002,0.0,0.0,0.0
08/08/2023,04:11:52,0.001,0.0,0.0,0.0
08/08/2023,04:12:52,0.001,0.0,0.0,0.0
08/08/2023,04:13:52,0.001,0.0,0.0,0.0
08/08/2023,04:14:52,0.001,0.0,0.0,0.0
08/08/2023,04:15:51,0.001,0.0,0.0,0.0
08/08/2023,04:16:52,0.001,0.0,0.0,0.0
08/08/2023,04:17:52,0.001,0.0,0.0,0.0
08/08/2023,04:18:52,0.002,0.0,0.0,0.0
08/08/2023,04:19:52,0.001,0.0,0.0,0.0
08/08/2023,04:20:52,0.001,0.0,0.0,0.0
08/08/2023,04:21:52,0.001,0.0,0.0,0.0
08/08/2023,04:22:52,0.001,0.0,0.0,0.0
08/08/2023,04:23:52,0.001,0.0,0.0,0.0
08/08/2023,04:24:52,0.001,0.0,0.0,0.0
08/08/2023,04:25:52,0.001,0.0,0.0,0.0
08/08/2023,04:26:52,0.001,0.0,0.0,0.0
08/08/2023,04:27:52,0.001,0.0,0.0,0.0
08/08/2023,04:28:52,0.000,0.0,0.0,0.0
08/08/2023,04:29:52,0.002,0.0,0.0,0.0
08/08/2023,04:30:52,0.001,0.0,0.0,0.0
08/08/2023,04:31:52,0.001,0.0,0.0,0.0
08/08/2023,04:32:52,0.002,0.0,0.0,0.0
08/08/2023,04:33:51,0.001,0.0,0.0,0.0
08/08/2023,04:34:52,0.001,0.0,0.0,0.0
08/08/2023,04:35:53,0.001,0.0,0.0,0.0
08/08/2023,04:36:52,0.002,0.0,0.0,0.0
08/08/2023,04:37:52,0.002,0.0,0.0,0.0
08/08/2023,04:38:52,0.002,0.0,0.0,0.0
08/08/2023,04:39:52,0.001,0.0,0.0,0.0
08/08/2023,04:40:52,0.002,0.0,0.0,0.0
08/08/2023,04:41:52,0.003,0.0,0.0,0.0
08/08/2023,04:42:52,0.001,0.0,0.0,0.0
08/08/2023,04:43:52,0.002,0.0,0.0,0.0
08/08/2023,04:44:52,0.003,0.0,0.0,0.0
08/08/2023,04:45:52,0.003,0.0,0.0,0.0
08/08/2023,04:46:52,0.003,0.0,0.0,0.0
08/08/2023,04:47:52,0.003,0.0,0.0,0.0
08/08/2023,04:48:52,0.003,0.0,0.0,0.0
08/08/2023,04:49:52,0.004,0.0,0.0,0.0
08/08/2023,04:50:52,0.004,0.0,0.0,0.0
08/08/2023,04:51:52,0.004,0.0,0.0,0.0
08/08/2023,04:52:52,0.003,0.0,0.0,0.0
08/08/2023,04:53:52,0.004,0.0,0.0,0.0
08/08/2023,04:54:51,0.004,0.0,0.0,0.0
08/08/2023,04:55:52,0.004,0.0,0.0,0.0
08/08/2023,04:56:52,0.005,0.0,0.0,0.0
08/08/2023,04:57:52,0.004,0.0,0.0,0.0
08/08/2023,04:58:52,0.005,0.0,0.0,0.0
08/08/2023,04:59:52,0.006,0.0,0.0,0.0
08/08/2023,05:00:52,0.006,0.0,0.0,0.0
08/08/2023,05:01:52,0.006,0.0,0.0,0.0
08/08/2023,05:02:52,0.007,0.0,0.0,0.0
08/08/2023,05:03:52,0.007,0.0,0.0,0.0
08/08/2023,05:04:52,0.008,0.0,0.001,0.001
08/08/2023,05:05:52,0.008,0.0,0.001,0.0
08/08/2023,05:06:52,0.008,0.0,0.001,0.0
08/08/2023,05:07:52,0.009,0.0,0.001,0.0
08/08/2023,05:08:52,0.010,0.0,0.001,0.0
08/08/2023,05:09:52,0.009,0.0,0.001,0.0
08/08/2023,05:10:52,0.009,0.0,0.001,0.0
08/08/2023,05:11:52,0.010,0.0,0.002,0.001
08/08/2023,05:12:52,0.010,0.0,0.002,0.0
08/08/2023,05:13:52,0.011,0.0,0.002,0.0
08/08/2023,05:14:52,0.012,0.0,0.002,0.0
08/08/2023,05:15:52,0.012,0.0,0.002,0.0
08/08/2023,05:16:52,0.012,0.0,0.002,0.0
08/08/2023,05:17:52,0.012,0.0,0.003,0.001
08/08/2023,05:18:52,0.013,0.0,0.003,0.0
08/08/2023,05:19:52,0.013,0.0,0.003,0.0
08/08/2023,05:20:52,0.014,0.0,0.003,0.0
08/08/2023,05:21:52,0.013,0.0,0.003,0.0
08/08/2023,05:22:52,0.013,0.0,0.004,0.001
08/08/2023,05:23:52,0.013,0.0,0.004,0.0
08/08/2023,05:24:52,0.013,0.0,0.004,0.0
08/08/2023,05:25:52,0.014,0.0,0.004,0.0
08/08/2023,05:26:52,0.014,0.0,0.005,0.001
08/08/2023,05:27:52,0.014,0.0,0.005,0.0
08/08/2023,05:28:52,0.015,0.0,0.005,0.0
08/08/2023,05:29:52,0.016,0.0,0.005,0.0
08/08/2023,05:30:52,0.017,0.0,0.006,0.001
08/08/2023,05:31:52,0.017,0.0,0.006,0.0
08/08/2023,05:32:52,0.017,0.0,0.006,0.0
08/08/2023,05:33:52,0.016,0.0,0.006,0.0
08/08/2023,05:34:52,0.018,0.0,0.007,0.001
08/08/2023,05:35:52,0.019,0.0,0.007,0.0
08/08/2023,05:36:52,0.019,0.0,0.007,0.0
08/08/2023,05:37:51,0.019,0.0,0.008,0.001
08/08/2023,05:38:52,0.019,0.0,0.008,0.0
08/08/2023,05:39:52,0.020,0.0,0.008,0.0
08/08/2023,05:40:52,0.021,0.0,0.009,0.001
08/08/2023,05:41:52,0.021,0.0,0.009,0.0
08/08/2023,05:42:52,0.021,0.0,0.009,0.0
08/08/2023,05:43:52,0.021,0.0,0.01,0.001
08/08/2023,05:44:52,0.022,0.0,0.01,0.0
08/08/2023,05:45:52,0.021,0.0,0.01,0.0
08/08/2023,05:46:53,0.021,0.0,0.011,0.001
08/08/2023,05:47:52,0.021,0.0,0.011,0.0
08/08/2023,05:48:52,0.021,0.0,0.011,0.0
08/08/2023,05:49:52,0.020,0.0,0.012,0.001
08/08/2023,05:50:56,0.020,0.0,0.012,0.0
08/08/2023,05:51:53,0.020,0.0,0.012,0.0
08/08/2023,05:52:52,0.020,0.0,0.013,0.001
08/08/2023,05:53:52,0.020,0.0,0.013,0.0
08/08/2023,05:54:52,0.020,0.0,0.013,0.0
08/08/2023,05:55:52,0.022,0.0,0.014,0.001
08/08/2023,05:56:52,0.021,0.0,0.014,0.0
08/08/2023,05:57:52,0.020,0.0,0.015,0.001
08/08/2023,05:58:52,0.020,0.0,0.015,0.0
08/08/2023,05:59:52,0.019,0.0,0.015,0.0
08/08/2023,06:00:52,0.018,0.0,0.015,0.0
08/08/2023,06:01:52,0.019,0.0,0.016,0.001
08/08/2023,06:02:52,0.020,0.0,0.016,0.0
08/08/2023,06:03:52,0.018,0.0,0.016,0.0
08/08/2023,06:04:52,0.019,0.0,0.017,0.001
08/08/2023,06:05:52,0.019,0.0,0.017,0.0
08/08/2023,06:06:52,0.020,0.0,0.017,0.0
08/08/2023,06:07:52,0.020,0.0,0.018,0.001
08/08/2023,06:08:52,0.020,0.0,0.018,0.0
08/08/2023,06:09:52,0.020,0.0,0.018,0.0
08/08/2023,06:10:53,0.023,0.0,0.019,0.001
08/08/2023,06:11:52,0.024,0.0,0.019,0.0
08/08/2023,06:12:52,0.025,0.0,0.02,0.001
08/08/2023,06:13:52,0.025,0.0,0.02,0.0
08/08/2023,06:14:52,0.026,0.0,0.02,0.0
08/08/2023,06:15:52,0.027,0.0,0.021,0.001
08/08/2023,06:16:52,0.030,0.0,0.021,0.0
08/08/2023,06:17:52,0.034,0.0,0.022,0.001
08/08/2023,06:18:52,0.034,0.0,0.022,0.0
08/08/2023,06:19:52,0.036,0.0,0.023,0.001
08/08/2023,06:20:52,0.038,0.0,0.024,0.001
08/08/2023,06:21:52,0.042,0.0,0.024,0.0
08/08/2023,06:22:52,0.043,0.0,0.025,0.001
08/08/2023,06:23:52,0.044,0.0,0.026,0.001
08/08/2023,06:24:52,0.045,0.0,0.026,0.0
08/08/2023,06:25:52,0.045,0.0,0.027,0.001
08/08/2023,06:26:52,0.046,0.0,0.028,0.001
08/08/2023,06:27:52,0.047,0.0,0.029,0.001
08/08/2023,06:28:52,0.050,0.0,0.03,0.001
08/08/2023,06:29:52,0.054,0.0,0.03,0.0
08/08/2023,06:30:52,0.055,0.0,0.031,0.001
08/08/2023,06:31:52,0.055,0.0,0.032,0.001
08/08/2023,06:32:52,0.056,0.0,0.033,0.001
08/08/2023,06:33:53,0.058,0.0,0.034,0.001
08/08/2023,06:34:52,0.059,0.0,0.035,0.001
08/08/2023,06:35:52,0.059,0.0,0.036,0.001
08/08/2023,06:36:52,0.057,0.0,0.037,0.001
08/08/2023,06:37:52,0.054,0.0,0.038,0.001
08/08/2023,06:38:52,0.054,0.0,0.039,0.001
08/08/2023,06:39:52,0.055,0.0,0.04,0.001
08/08/2023,06:40:53,0.056,0.0,0.041,0.001
08/08/2023,06:41:52,0.057,0.0,0.042,0.001
08/08/2023,06:42:52,0.058,0.0,0.043,0.001
08/08/2023,06:43:52,0.062,0.0,0.044,0.001
08/08/2023,06:44:52,0.065,0.0,0.045,0.001
08/08/2023,06:45:52,0.067,0.0,0.046,0.001
08/08/2023,06:46:52,0.070,0.0,0.047,0.001
08/08/2023,06:47:53,0.073,0.0,0.048,0.001
08/08/2023,06:48:52,0.073,0.0,0.049,0.001
08/08/2023,06:49:52,0.074,0.0,0.051,0.002
08/08/2023,06:50:52,0.076,0.0,0.052,0.001
08/08/2023,06:51:52,0.078,0.0,0.053,0.001
08/08/2023,06:52:52,0.079,0.0,0.054,0.001
08/08/2023,06:53:52,0.079,0.0,0.056,0.002
08/08/2023,06:54:52,0.081,0.0,0.057,0.001
08/08/2023,06:55:52,0.080,0.0,0.058,0.001
08/08/2023,06:56:52,0.078,0.0,0.06,0.002
08/08/2023,06:57:52,0.075,0.0,0.061,0.001
08/08/2023,06:58:52,0.073,0.0,0.062,0.001
08/08/2023,06:59:52,0.072,0.0,0.063,0.001
08/08/2023,07:00:52,0.072,0.0,0.065,0.002
08/08/2023,07:01:52,0.070,0.0,0.066,0.001
08/08/2023,07:02:52,0.067,0.0,0.067,0.001
08/08/2023,07:03:52,0.065,0.0,0.068,0.001
08/08/2023,07:04:53,0.065,0.0,0.069,0.001
08/08/2023,07:05:53,0.065,0.0,0.07,0.001
08/08/2023,07:06:52,0.065,0.0,0.071,0.001
08/08/2023,07:07:52,0.067,0.0,0.072,0.001
08/08/2023,07:08:52,0.069,0.0,0.073,0.001
08/08/2023,07:09:52,0.071,0.0,0.075,0.002
08/08/2023,07:10:52,0.074,0.0,0.076,0.001
08/08/2023,07:11:52,0.077,0.0,0.077,0.001
08/08/2023,07:12:52,0.083,0.0,0.078,0.001
08/08/2023,07:13:53,0.089,0.0,0.08,0.002
08/08/2023,07:14:52,0.095,0.0,0.081,0.001
08/08/2023,07:15:52,0.102,0.0,0.083,0.002
08/08/2023,07:16:52,0.110,0.0,0.085,0.002
08/08/2023,07:17:52,0.117,0.0,0.087,0.002
08/08/2023,07:18:52,0.125,0.0,0.089,0.002
08/08/2023,07:19:52,0.133,0.0,0.091,0.002
08/08/2023,07:20:52,0.142,0.0,0.093,0.002
08/08/2023,07:21:52,0.148,0.0,0.096,0.003
08/08/2023,07:22:52,0.149,0.0,0.098,0.002
08/08/2023,07:23:52,0.148,0.0,0.1,0.002
08/08/2023,07:24:52,0.144,0.0,0.103,0.003
08/08/2023,07:25:52,0.144,0.0,0.105,0.002
08/08/2023,07:26:53,0.149,0.0,0.108,0.003
08/08/2023,07:27:52,0.156,0.0,0.11,0.002
08/08/2023,07:28:52,0.159,0.0,0.113,0.003
08/08/2023,07:29:52,0.160,0.0,0.116,0.003
08/08/2023,07:30:52,0.158,0.0,0.118,0.002
08/08/2023,07:31:53,0.154,0.0,0.121,0.003
08/08/2023,07:32:52,0.151,0.0,0.123,0.002
08/08/2023,07:33:52,0.147,0.0,0.126,0.003
08/08/2023,07:34:52,0.143,0.0,0.128,0.002
08/08/2023,07:35:52,0.135,0.0,0.131,0.003
08/08/2023,07:36:53,0.128,0.0,0.133,0.002
08/08/2023,07:37:52,0.126,0.0,0.135,0.002
08/08/2023,07:38:52,0.126,0.0,0.137,0.002
08/08/2023,07:39:52,0.127,0.0,0.139,0.002
08/08/2023,07:40:52,0.128,0.0,0.141,0.002
08/08/2023,07:41:53,0.126,0.0,0.143,0.002
08/08/2023,07:42:52,0.128,0.0,0.145,0.002
08/08/2023,07:43:52,0.131,0.0,0.148,0.003
08/08/2023,07:44:53,0.135,0.0,0.15,0.002
08/08/2023,07:45:53,0.143,0.0,0.152,0.002
08/08/2023,07:46:53,0.151,0.0,0.155,0.003
08/08/2023,07:47:53,0.156,0.0,0.157,0.002
08/08/2023,07:48:52,0.155,0.0,0.16,0.003
08/08/2023,07:49:52,0.156,0.0,0.162,0.002
08/08/2023,07:50:52,0.158,0.0,0.165,0.003
08/08/2023,07:51:52,0.161,0.0,0.168,0.003
08/08/2023,07:52:52,0.170,0.0,0.17,0.002
08/08/2023,07:53:53,0.184,0.0,0.173,0.003
08/08/2023,07:54:52,0.193,0.0,0.176,0.003
08/08/2023,07:55:53,0.198,0.0,0.18,0.004
08/08/2023,07:56:53,0.197,0.0,0.183,0.003
08/08/2023,07:57:53,0.198,0.0,0.186,0.003
08/08/2023,07:58:52,0.194,0.0,0.19,0.004
08/08/2023,07:59:52,0.182,0.0,0.193,0.003
08/08/2023,08:00:52,0.167,0.0,0.196,0.003
08/08/2023,08:01:53,0.150,0.0,0.198,0.002
08/08/2023,08:02:53,0.137,0.0,0.201,0.003
08/08/2023,08:03:53,0.124,0.0,0.203,0.002
08/08/2023,08:04:52,0.116,0.0,0.205,0.002
08/08/2023,08:05:52,0.115,0.0,0.207,0.002
08/08/2023,08:06:52,0.113,0.0,0.209,0.002
08/08/2023,08:07:52,0.107,0.0,0.21,0.001
08/08/2023,08:08:53,0.110,0.0,0.212,0.002
08/08/2023,08:09:52,0.120,0.0,0.214,0.002
08/08/2023,08:10:53,0.127,0.0,0.216,0.002
08/08/2023,08:11:52,0.130,0.0,0.218,0.002
08/08/2023,08:12:52,0.132,0.0,0.221,0.003
08/08/2023,08:13:52,0.133,0.0,0.223,0.002
08/08/2023,08:14:52,0.135,0.0,0.225,0.002
08/08/2023,08:15:53,0.137,0.0,0.227,0.002
08/08/2023,08:16:53,0.134,0.0,0.229,0.002
08/08/2023,08:17:50,0.131,0.0,0.232,0.003
08/08/2023,08:18:50,0.129,0.0,0.234,0.002
08/08/2023,08:19:53,0.134,0.0,0.236,0.002
08/08/2023,08:20:52,0.136,0.0,0.238,0.002
08/08/2023,08:21:52,0.135,0.0,0.241,0.003
08/08/2023,08:22:53,0.129,0.0,0.243,0.002
08/08/2023,08:23:53,0.122,0.0,0.245,0.002
08/08/2023,08:24:53,0.127,0.0,0.247,0.002
08/08/2023,08:25:52,0.146,0.0,0.249,0.002
08/08/2023,08:26:52,0.169,0.0,0.252,0.003
08/08/2023,08:27:52,0.192,0.0,0.255,0.003
08/08/2023,08:28:52,0.211,0.0,0.258,0.003
08/08/2023,08:29:53,0.219,1.0,0.262,0.004
08/08/2023,08:30:52,0.217,0.0,0.265,0.003
08/08/2023,08:31:52,0.218,1.0,0.269,0.004
08/08/2023,08:32:52,0.219,1.0,0.273,0.004
08/08/2023,08:33:52,0.229,1.0,0.276,0.003
08/08/2023,08:34:53,0.239,1.0,0.28,0.004
08/08/2023,08:35:52,0.245,1.0,0.284,0.004
08/08/2023,08:36:52,0.249,1.0,0.288,0.004
08/08/2023,08:37:53,0.254,1.0,0.293,0.005
08/08/2023,08:38:52,0.265,1.0,0.297,0.004
08/08/2023,08:39:54,0.274,1.0,0.302,0.005
08/08/2023,08:40:52,0.283,1.0,0.306,0.004
08/08/2023,08:41:52,0.311,1.0,0.311,0.005
08/08/2023,08:42:53,0.356,1.0,0.317,0.006
08/08/2023,08:43:53,0.400,1.0,0.323,0.006
08/08/2023,08:44:53,0.432,1.0,0.33,0.007
08/08/2023,08:45:52,0.442,1.0,0.337,0.007
08/08/2023,08:46:52,0.412,1.0,0.344,0.007
08/08/2023,08:47:52,0.374,1.0,0.351,0.007
08/08/2023,08:48:52,0.356,1.0,0.357,0.006
08/08/2023,08:49:52,0.362,1.0,0.363,0.006
08/08/2023,08:50:52,0.374,1.0,0.369,0.006
08/08/2023,08:51:52,0.380,1.0,0.375,0.006
08/08/2023,08:52:53,0.387,1.0,0.382,0.007
08/08/2023,08:53:52,0.393,1.0,0.388,0.006
08/08/2023,08:54:52,0.397,1.0,0.395,0.007
08/08/2023,08:55:52,0.399,1.0,0.401,0.006
08/08/2023,08:56:52,0.403,1.0,0.408,0.007
08/08/2023,08:57:52,0.388,1.0,0.415,0.007
08/08/2023,08:58:52,0.374,1.0,0.421,0.006
08/08/2023,08:59:52,0.377,1.0,0.427,0.006
08/08/2023,09:00:53,0.387,1.0,0.434,0.007
08/08/2023,09:01:52,0.399,1.0,0.44,0.006
08/08/2023,09:02:52,0.411,1.0,0.447,0.007
08/08/2023,09:03:53,0.420,1.0,0.454,0.007
08/08/2023,09:04:53,0.423,1.0,0.461,0.007
08/08/2023,09:05:53,0.414,1.0,0.468,0.007
08/08/2023,09:06:52,0.385,1.0,0.475,0.007
08/08/2023,09:07:52,0.349,1.0,0.481,0.006
08/08/2023,09:08:52,0.324,1.0,0.486,0.005
08/08/2023,09:09:52,0.317,1.0,0.492,0.006
08/08/2023,09:10:52,0.320,1.0,0.497,0.005
08/08/2023,09:11:52,0.328,1.0,0.502,0.005
08/08/2023,09:12:52,0.336,1.0,0.508,0.006
08/08/2023,09:13:52,0.340,1.0,0.513,0.005
08/08/2023,09:14:52,0.335,1.0,0.519,0.006
08/08/2023,09:15:53,0.327,1.0,0.525,0.006
08/08/2023,09:16:52,0.316,1.0,0.53,0.005
08/08/2023,09:17:52,0.306,1.0,0.535,0.005
08/08/2023,09:18:53,0.293,1.0,0.54,0.005
08/08/2023,09:19:53,0.295,1.0,0.545,0.005
08/08/2023,09:20:53,0.317,1.0,0.55,0.005
08/08/2023,09:21:53,0.349,1.0,0.556,0.006
08/08/2023,09:22:53,0.371,1.0,0.562,0.006
08/08/2023,09:23:53,0.369,1.0,0.568,0.006
08/08/2023,09:24:53,0.362,1.0,0.574,0.006
08/08/2023,09:25:52,0.384,1.0,0.58,0.006
08/08/2023,09:26:52,0.441,1.0,0.587,0.007
08/08/2023,09:27:52,0.484,1.0,0.595,0.008
08/08/2023,09:28:52,0.492,1.0,0.603,0.008
08/08/2023,09:29:52,0.481,1.0,0.611,0.008
08/08/2023,09:30:52,0.489,1.0,0.619,0.008
08/08/2023,09:31:53,0.491,1.0,0.627,0.008
08/08/2023,09:32:52,0.494,1.0,0.635,0.008
08/08/2023,09:33:53,0.537,1.0,0.644,0.009
08/08/2023,09:34:52,0.569,1.0,0.653,0.009
08/08/2023,09:35:52,0.537,1.0,0.663,0.01
08/08/2023,09:36:52,0.479,1.0,0.671,0.008
08/08/2023,09:37:52,0.452,1.0,0.679,0.008
08/08/2023,09:38:53,0.438,1.0,0.686,0.007
08/08/2023,09:39:52,0.426,1.0,0.693,0.007
08/08/2023,09:40:52,0.427,1.0,0.7,0.007
08/08/2023,09:41:53,0.446,1.0,0.708,0.008
08/08/2023,09:42:53,0.483,1.0,0.715,0.007
08/08/2023,09:43:53,0.507,1.0,0.724,0.009
08/08/2023,09:44:53,0.487,1.0,0.732,0.008
08/08/2023,09:45:53,0.474,1.0,0.74,0.008
08/08/2023,09:46:52,0.462,1.0,0.748,0.008
08/08/2023,09:47:53,0.446,1.0,0.755,0.007
08/08/2023,09:48:52,0.426,1.0,0.763,0.008
08/08/2023,09:49:52,0.370,1.0,0.769,0.006
08/08/2023,09:50:52,0.316,1.0,0.775,0.006
08/08/2023,09:51:52,0.353,1.0,0.78,0.005
08/08/2023,09:52:53,0.390,1.0,0.787,0.007
08/08/2023,09:53:53,0.333,1.0,0.793,0.006
08/08/2023,09:54:53,0.269,1.0,0.798,0.005
08/08/2023,09:55:53,0.291,1.0,0.802,0.004
08/08/2023,09:56:52,0.366,1.0,0.808,0.006
08/08/2023,09:57:53,0.420,1.0,0.814,0.006
08/08/2023,09:58:53,0.394,1.0,0.821,0.007
08/08/2023,09:59:53,0.375,1.0,0.828,0.007
08/08/2023,10:00:53,0.389,1.0,0.834,0.006